Regional Weather Roundup
Issued by NWS

Home | Current Version | Previous Version | Graphics & Text | Print | Product List | Glossary Off
Versions: 1 2 3 4 5 6 7 8 9 10 11 12 13 14 15 16 17 18 19 20 21 22 23 24 25 26 27 28 29 30 31 32 33 34 35 36 37 38 39 40 41 42 43 44 45 46 47 48 49 50

000
ASUS43 KMPX 231810
RWRMN
WEATHER ROUNDUP FOR MINNESOTA
NATIONAL WEATHER SERVICE TWIN CITIES/CHANHASSEN MN
100 PM CDT WED JUL 23 2014


NOTE: "FAIR" INDICATES FEW OR NO CLOUDS BELOW 12,000 FEET WITH NO
SIGNIFICANT WEATHER AND/OR OBSTRUCTIONS TO VISIBILITY. N/A MEANS
CURRENT SKY AND/OR WEATHER CONDITIONS ARE NOT AVAILABLE.

MNZ060>063-068>070-231900-
   Twin Cities Metro

CITY           SKY/WX    TMP DP  RH WIND       PRES   REMARKS
TWIN CITIES    MOSUNNY   78  51  38 W9G18     30.23S
6HR MIN TEMP:  65; 6HR MAX TEMP:  81;

ST PAUL          N/A     79  53  40 VRB3      30.23S
CRYSTAL        MOSUNNY   81  52  36 MISG      30.22S
BLAINE         MOSUNNY   79  52  38 MISG      30.23
LAKEVILLE      PTSUNNY   75  54  46 CALM      30.24S
EDEN PRAIRIE   MOSUNNY   80  54  40 NW8       30.23S
6HR MIN TEMP:  63; 6HR MAX TEMP:  81;

SOUTH ST PAUL  PTSUNNY   78  52  40 NW3       30.23S
LAKE ELMO      FAIR      77  55  47 NW7       30.24S
$$
MNZ001>005-007-008-013>017-022>024-027-028-231900-
   Northwest Minnesota

CITY           SKY/WX    TMP DP  RH WIND       PRES   REMARKS
BEMIDJI        MOSUNNY   72  51  47 NW8       30.27F
HALLOCK        SUNNY     70  52  52 N7        30.29F
ROSEAU         MOSUNNY   70  57  64 NE3       30.29S
WARROAD        PTSUNNY   66  57  72 E9        30.30F
THIEF RVR FALL SUNNY     70  54  56 N6        30.29S
CROOKSTON      MOSUNNY   70  57  64 NW8       30.30S
FOSSTON        MOSUNNY   72  50  46 NW8       30.29F
DETROIT LAKES  MOSUNNY   72  55  56 N5        30.30F
MOORHEAD       MOSUNNY   75  63  64 N5        30.28F
PARK RAPIDS    MOSUNNY   73  53  49 N5        30.27F
$$
MNZ006-009>011-018-025>026-231900-
   North Central Minnesota

CITY           SKY/WX    TMP DP  RH WIND       PRES   REMARKS
BAUDETTE       MOSUNNY   70  52  52 CALM      30.29F
FLAG ISLAND    SUNNY     68  48  49 N9        30.29S
INTL FALLS     CLOUDY    72  50  45 N6        30.27F
6HR MIN TEMP:  61; 6HR MAX TEMP:  72;

WASKISH        SUNNY     72  57  60 CALM      30.27F
BIG FORK       MOSUNNY   73  55  53 E5        30.28S
LONGVILLE      MOSUNNY   72  54  53 NW5       30.27S
GRAND RAPIDS   MOSUNNY   72  52  49 NW7       30.27S
CRANE LAKE     SUNNY     68  46  45 NW5       30.28F
ORR            MOSUNNY   70  48  46 CALM      30.25F
COOK           MOSUNNY   68  52  56 N8        30.27F
$$
MNZ012-019>021-037-231900-
   Northeast Minnesota

CITY           SKY/WX    TMP DP  RH WIND       PRES   REMARKS
DULUTH         MOSUNNY   72  52  49 N7        30.25S
6HR MIN TEMP:  60; 6HR MAX TEMP:  74;

ELY            PTSUNNY   66  50  55 N3        30.26S
HIBBING        PTSUNNY   73  53  49 N12       30.26F
EVELETH        PTSUNNY   70  50  49 N8        30.27F
DULUTH HARBOR  MOSUNNY   64  59  82 NE9       30.25S
TWO HARBORS    PTSUNNY   66  55  68 SE7       30.23F
SILVER BAY     MOSUNNY   66  59  77 S7        30.23S
GRAND MARAIS     N/A     56  51  84 SW3       30.25S
G MARAIS ARPRT MOSUNNY   64  52  63 S3        30.27S
$$
MNZ029>031-032-039>041-046>048-054>057-064-231900-
   West Central Minnesota

CITY           SKY/WX    TMP DP  RH WIND       PRES   REMARKS
FERGUS FALLS   MOSUNNY   75  52  43 CALM      30.27F
WHEATON          N/A     73  57  56 SE3       30.29S
MORRIS         SUNNY     79  59  50 E6        30.27S
ALEXANDRIA     PTSUNNY   74  55  51 VRB6      30.29F
ELBOW LAKE     FAIR      74  56  54 N7        30.28S
WADENA         MOSUNNY   72  57  60 NW5       30.28S
GLENWOOD       MOSUNNY   75  52  43 N9        30.29S
APPLETON       SUNNY     81  46  30 N6        30.26F
BENSON         SUNNY     79  54  41 NE12      30.27F
ORTONVILLE     SUNNY     79  52  38 NE6       30.27F
MADISON        SUNNY     81  57  44 NE6       30.26F
WILLMAR        FAIR      79  48  34 N6        30.28F
$$
MNZ033>034-036-042>043-049>051-058-059-231900-
   Central Minnesota

CITY           SKY/WX    TMP DP  RH WIND       PRES   REMARKS
ST CLOUD       MOSUNNY   80  53  39 N10G17    30.26R
6HR MIN TEMP:  60; 6HR MAX TEMP:  80;

SAUK CENTRE    FAIR      74  54  49 NW8       30.27F
PAYNESVILLE    MOSUNNY   76  49  38 W8G17     30.27S HAZE
AITKIN         MOSUNNY   75  57  53 N5        30.25S
PINE RIVER     MOSUNNY   73  54  49 N8        30.29S
BRAINERD       MOSUNNY   72  53  51 VRB5      30.27S
STAPLES        PTSUNNY   73  55  53 W8        30.27F
LONG PRAIRIE   FAIR      72  55  56 W8        30.29S
LITTLE FALLS   PTSUNNY   73  48  40 NW5       30.26F
LITCHFIELD     SUNNY     79  52  38 CALM      30.26F
BUFFALO        SUNNY     77  49  36 W7        30.25F
MAPLE LAKE     SUNNY     77  54  44 N6        30.26S
$$
MNZ037-044-045-052-053-231900-
   East Central Minnesota

CITY           SKY/WX    TMP DP  RH WIND       PRES   REMARKS
PRINCETON      MOSUNNY   79  52  38 NW8       30.25S
MORA           MOSUNNY   73  55  53 N3        30.25F
CAMBRIDGE      MOSUNNY   79  57  47 NW8       30.22S
RUSH CITY      PTSUNNY   73  57  57 N7        30.24S
MOOSE LAKE     MOSUNNY   73  54  49 NE5       30.23S
HINCKLEY       MOCLDY    73  55  53 CALM      30.24F
CLOQUET        MOSUNNY   72  54  53 NW13G18   30.25S
MCGREGOR       MOSUNNY   73  57  56 NE9       30.26F
$$
MNZ071>073-080-081-089-090-097-098-231900-
   Southwest Minnesota

CITY           SKY/WX    TMP DP  RH WIND       PRES   REMARKS
MONTEVIDEO     SUNNY     81  55  41 E3        30.27F
GRANITE FALLS  SUNNY     77  53  43 CALM      30.28S
CANBY          SUNNY     76  54  44 E5        30.28F
MARSHALL       SUNNY     77  54  44 NE9       30.26F
REDWOOD FALLS  MOSUNNY   80  52  37 VRB7      30.26S
OLIVIA         SUNNY     77  50  38 CALM      30.26S
PIPESTONE      SUNNY     75  52  43 SE5       30.29S
WINDOM         MOSUNNY   75  55  50 N3        30.28S
WORTHINGTON    PTSUNNY   75  57  53 E9        30.29S
JACKSON        MOSUNNY   77  55  47 E9        30.27F
TRACY          SUNNY     77  52  41 CALM      30.28F
SLAYTON        SUNNY     75  51  42 CALM      30.30S
$$
MNZ065>067-074>077-082>085-091>093-231900-
   South Central Minnesota

CITY           SKY/WX    TMP DP  RH WIND       PRES   REMARKS
MANKATO        MOSUNNY   75  50  41 E6        30.25F
NEW ULM        SUNNY     77  52  41 N3        30.25F
ST JAMES       MOSUNNY   81  54  39 NE6       30.26F
FAIRMONT       PTSUNNY   77  55  47 E6        30.26S
GLENCOE        SUNNY     78  51  37 N6        30.24F
FARIBAULT      MOSUNNY   81  43  26 NW3       30.25S
OWATONNA       MOSUNNY   77  52  41 N6        30.25S
WASECA         PTSUNNY   73  50  43 N5        30.27S
ALBERT LEA     MOSUNNY   77  54  44 N3        30.25S
$$
MNZ078>079-086>088-094>096-231900-
   Southeast Minnesota

CITY           SKY/WX    TMP DP  RH WIND       PRES   REMARKS
ROCHESTER      MOSUNNY   76  58  53 N5        30.25S
6HR MIN TEMP:  61; 6HR MAX TEMP:  77;

RED WING       MOSUNNY   81  48  32 NW5       30.21F
STANTON        PTSUNNY   77  51  39 W6        30.23S
DODGE CENTER   MOSUNNY   75  57  53 N6        30.25F
WINONA         PTSUNNY   77  55  47 CALM      30.22S
AUSTIN         PTSUNNY   73  54  49 CALM      30.25S
PRESTON        MOSUNNY   74  59  58 NE6       30.26R
$$
ABBREVIATIONS USED IN REMARKS
   TC - TEMPERATURES IN CELSIUS
  WCI - WIND CHILL INDEX
   HX - HEAT INDEX
  VSB - VISIBILITY
$$


USA.gov is the U.S. government's official web portal to all federal, state and local government web resources and services.